Погода в Северном Кадуе

Россия / Иркутская область     54°40′24″N   100°05′51″E
темп.,
°C
ветер,
м/с
пор.,
м/с
влажн.,
%
обл.,
%
осадки,
мм/ч
давл.,
гПа
погр.,
м
12 мая, ср
ср1223:00+6ссв26655 0.0 1016109
02:00+4с129170 0.0 101638
05:00+5ссв3592100 0.1 1016511
08:00+3с2597100 1.4 1018444
11:00+6с345757 0.3 10171357
14:00+10с343666 0.3 10152138
17:00+10с453143 0.0 10152395
20:00+8с36405 0.0 1016289
13 мая, чт
чт1323:00+3с225753 0.0 101722
02:00+1юв11645 0.0 101815
05:000з1165100 0.0 101810
08:00+4с1251100 0.0 1019319
11:00+8ссв2435100 0.0 10182394
14:00+10св3429100 0.0 10172697
17:00+11всв33253 0.0 10172476
20:00+8в24370 0.0 1017147
14 мая, пт
пт1423:00+3вюв22510 0.0 101929
02:00+1ююв23600 0.0 101848
05:00−1юв25600 0.0 101787
08:00+5ююв410475 0.0 1016417
11:00+11ююв463036 0.0 10131020
14:00+15ююв332387 0.0 10101582
17:00+16юв2223100 0.0 10081501
20:00+12вюв264138 0.0 1008124
15 мая, сб
сб1523:00+7юв115445 0.0 101010
02:00+6сз71585100 0.0 1015868
05:00+4зсз61192100 0.7 10181032
08:00+4зсз5137355 0.8 10211248
11:00+8зсз6104257 0.0 10201853
14:00+10зсз6935100 0.0 10182099
17:00+12зсз61042100 0.0 10171924
20:00+7з51385100 1.0 10191271
16 мая, вс
вс1623:00+7з41381100 0.3 1019817
02:00+9з4137436 0.3 1018817
05:00+5зюз238575 0.0 101847
08:00+11зюз412657 0.0 1016637
11:00+16з41045100 0.0 10141479
14:00+19зсз5103988 0.0 10122198
17:00+19зсз593999 0.0 10092083
20:00+15зсз6135495 0.0 10101258